QPF
0.03 0.03 0.03 0.03 0.04 0.05 0.05 0.09 0.11 0.13 0.12 0.10 0.06 0.05 0.05 0.04 0.04 0.04 0.05 0.05 0.07 0.07 0.05 0.04 0.04 0.04 0.04 0.03 0.03 0.02 0.02 0.03 0.05 0.05 0.04 0.03 0.02 0.02 0.02 0.02 0.03 0.03 0.03
0.02 0.02 0.02 0.03 0.03 0.04 0.05 0.09 0.09 0.09 0.09 0.10 0.08 0.07 0.07 0.06 0.05 0.04 0.05 0.05 0.05 0.04 0.04 0.04 0.04 0.03 0.03 0.02 0.02 0.02 0.02 0.02 0.04 0.05 0.05 0.04 0.03 0.03 0.02 0.02 0.03 0.03 0.04
0.03 0.03 0.02 0.04 0.04 0.03 0.04 0.06 0.08 0.07 0.09 0.10 0.10 0.08 0.07 0.07 0.07 0.06 0.05 0.05 0.04 0.04 0.04 0.04 0.04 0.03 0.02 0.02 0.02 0.02 0.02 0.02 0.03 0.04 0.06 0.05 0.04 0.03 0.02 0.02 0.02 0.03 0.03
0.04 0.03 0.02 0.03 0.03 0.04 0.05 0.05 0.05 0.06 0.07 0.08 0.09 0.07 0.07 0.07 0.07 0.07 0.06 0.05 0.06 0.06 0.05 0.04 0.04 0.03 0.03 0.02 0.02 0.02 0.03 0.03 0.03 0.03 0.04 0.05 0.06 0.06 0.04 0.03 0.02 0.03 0.03
0.04 0.04 0.03 0.03 0.03 0.03 0.05 0.05 0.04 0.04 0.04 0.05 0.06 0.06 0.06 0.06 0.07 0.08 0.09 0.08 0.07 0.05 0.04 0.05 0.05 0.05 0.03 0.03 0.02 0.03 0.03 0.03 0.03 0.03 0.03 0.05 0.08 0.07 0.06 0.04 0.04 0.04 0.04
0.03 0.04 0.03 0.03 0.03 0.02 0.02 0.03 0.03 0.04 0.04 0.05 0.06 0.06 0.06 0.06 0.06 0.06 0.07 0.08 0.07 0.06 0.05 0.04 0.05 0.05 0.05 0.04 0.03 0.03 0.03 0.03 0.03 0.04 0.04 0.05 0.06 0.07 0.06 0.05 0.05 0.06 0.06
0.02 0.03 0.02 0.02 0.01 0.01 0.02 0.02 0.03 0.04 0.04 0.04 0.05 0.09 0.08 0.06 0.06 0.05 0.06 0.07 0.06 0.05 0.05 0.04 0.03 0.04 0.04 0.04 0.04 0.05 0.04 0.04 0.04 0.04 0.04 0.04 0.04 0.05 0.06 0.06 0.06 0.05 0.05
0.02 0.03 0.02 0.02 0.01 0.01 0.02 0.03 0.04 0.05 0.05 0.04 0.05 0.06 0.07 0.05 0.04 0.04 0.05 0.05 0.05 0.05 0.06 0.05 0.03 0.03 0.03 0.03 0.04 0.04 0.03 0.03 0.03 0.03 0.04 0.04 0.04 0.04 0.04 0.05 0.06 0.06 0.05
0.04 0.03 0.02 0.02 0.02 0.02 0.05 0.08 0.05 0.03 0.05 0.05 0.05 0.04 0.04 0.05 0.05 0.05 0.05 0.04 0.05 0.04 0.05 0.06 0.05 0.03 0.03 0.03 0.03 0.03 0.03 0.03 0.03 0.03 0.03 0.04 0.04 0.04 0.05 0.06 0.07 0.07 0.06
0.04 0.03 0.02 0.02 0.02 0.03 0.05 0.11 0.07 0.04 0.04 0.04 0.03 0.03 0.03 0.04 0.04 0.04 0.03 0.04 0.05 0.04 0.04 0.04 0.05 0.05 0.04 0.03 0.03 0.04 0.04 0.03 0.03 0.03 0.04 0.04 0.04 0.05 0.05 0.05 0.06 0.06 0.06
0.04 0.02 0.01 0.01 0.01 0.02 0.02 0.04 0.03 0.02 0.02 0.03 0.03 0.03 0.02 0.02 0.02 0.02 0.02 0.04 0.04 0.03 0.03 0.02 0.03 0.04 0.03 0.02 0.03 0.04 0.04 0.03 0.03 0.03 0.03 0.04 0.04 0.04 0.04 0.05 0.06 0.06 0.06
0.04 0.03 0.03 0.01 0.01 0.01 0.02 0.02 0.01 0.02 0.02 0.02 0.03 0.03 0.03 0.03 0.03 0.03 0.03 0.03 0.04 0.03 0.03 0.04 0.03 0.02 0.02 0.03 0.03 0.03 0.03 0.03 0.04 0.03 0.03 0.03 0.03 0.04 0.04 0.05 0.04 0.04 0.06
0.04 0.04 0.05 0.02 0.01 0.01 0.01 0.01 0.01 0.02 0.02 0.02 0.02 0.03 0.04 0.04 0.04 0.04 0.03 0.03 0.03 0.03 0.04 0.04 0.03 0.03 0.03 0.03 0.02 0.02 0.02 0.03 0.03 0.03 0.03 0.03 0.03 0.04 0.06 0.06 0.05 0.04 0.04
0.03 0.08 0.07 0.02 0.01 0.01 0.01 0.01 0.01 0.01 0.02 0.03 0.04 0.05 0.06 0.06 0.04 0.03 0.03 0.03 0.04 0.03 0.03 0.03 0.03 0.03 0.02 0.02 0.02 0.02 0.03 0.03 0.03 0.03 0.03 0.03 0.03 0.05 0.07 0.07 0.07 0.06 0.07
0.04 0.06 0.03 0.01 0.01 0.01 0.01 0.01 0.01 0.01 0.02 0.02 0.04 0.04 0.05 0.05 0.03 0.03 0.03 0.03 0.03 0.02 0.03 0.02 0.02 0.02 0.02 0.02 0.02 0.02 0.03 0.04 0.04 0.05 0.04 0.03 0.03 0.03 0.05 0.07 0.07 0.06 0.07
0.04 0.02 0.01 0.01 0.01 0.01 0.00 0.00 0.01 0.02 0.02 0.03 0.04 0.03 0.03 0.03 0.02 0.03 0.02 0.02 0.02 0.02 0.02 0.02 0.02 0.01 0.01 0.02 0.04 0.03 0.04 0.05 0.05 0.05 0.04 0.03 0.03 0.02 0.02 0.02 0.03 0.03 0.04
0.02 0.01 0.02 0.02 0.01 0.01 0.01 0.01 0.01 0.02 0.01 0.01 0.02 0.02 0.02 0.02 0.03 0.03 0.02 0.02 0.02 0.02 0.02 0.01 0.01 0.01 0.02 0.05 0.05 0.03 0.06 0.06 0.05 0.04 0.04 0.03 0.02 0.02 0.02 0.03 0.04 0.04 0.04
0.01 0.01 0.02 0.01 0.01 0.01 0.01 0.02 0.02 0.02 0.02 0.02 0.02 0.02 0.02 0.02 0.03 0.02 0.02 0.02 0.03 0.04 0.04 0.03 0.03 0.03 0.05 0.06 0.06 0.06 0.07 0.05 0.04 0.03 0.03 0.02 0.02 0.02 0.02 0.02 0.03 0.03 0.03
0.01 0.02 0.02 0.02 0.01 0.01 0.01 0.01 0.01 0.01 0.01 0.02 0.03 0.02 0.02 0.02 0.02 0.02 0.02 0.02 0.02 0.03 0.05 0.06 0.06 0.08 0.10 0.10 0.08 0.08 0.05 0.03 0.03 0.03 0.02 0.02 0.02 0.01 0.01 0.02 0.03 0.02 0.03
0.01 0.02 0.01 0.02 0.01 0.01 0.01 0.01 0.00 0.00 0.01 0.02 0.03 0.03 0.02 0.02 0.02 0.02 0.02 0.02 0.02 0.03 0.04 0.06 0.08 0.09 0.10 0.09 0.05 0.04 0.02 0.02 0.02 0.02 0.02 0.02 0.02 0.02 0.01 0.02 0.02 0.02 0.02
0.01 0.01 0.01 0.01 0.01 0.01 0.01 0.01 0.00 0.01 0.01 0.03 0.04 0.03 0.01 0.02 0.02 0.02 0.02 0.02 0.02 0.02 0.03 0.04 0.04 0.04 0.04 0.03 0.02 0.02 0.02 0.01 0.01 0.02 0.01 0.02 0.02 0.02 0.02 0.02 0.02 0.02 0.02
0.02 0.01 0.01 0.01 0.01 0.00 0.01 0.01 0.01 0.01 0.02 0.03 0.03 0.02 0.01 0.01 0.01 0.02 0.02 0.02 0.02 0.02 0.03 0.03 0.03 0.03 0.03 0.02 0.02 0.02 0.02 0.02 0.02 0.03 0.03 0.03 0.03 0.03 0.02 0.02 0.02 0.02 0.02
0.03 0.01 0.01 0.01 0.01 0.00 0.01 0.01 0.02 0.02 0.04 0.04 0.02 0.01 0.01 0.01 0.01 0.01 0.01 0.01 0.01 0.01 0.02 0.02 0.03 0.02 0.02 0.02 0.03 0.03 0.03 0.03 0.03 0.03 0.03 0.03 0.03 0.02 0.03 0.03 0.02 0.02 0.02
0.02 0.01 0.00 0.00 0.00 0.00 0.00 0.01 0.03 0.05 0.05 0.03 0.01 0.01 0.01 0.02 0.02 0.02 0.01 0.01 0.01 0.01 0.01 0.01 0.01 0.01 0.01 0.01 0.01 0.02 0.02 0.02 0.02 0.02 0.02 0.02 0.02 0.02 0.02 0.03 0.03 0.03 0.03
0.02 0.01 0.01 0.00 0.00 0.01 0.02 0.03 0.04 0.04 0.02 0.01 0.01 0.02 0.02 0.02 0.02 0.01 0.01 0.01 0.01 0.01 0.01 0.01 0.01 0.01 0.00 0.00 0.01 0.01 0.01 0.01 0.01 0.02 0.02 0.02 0.02 0.02 0.03 0.05 0.05 0.04 0.03
0.00 0.01 0.01 0.01 0.02 0.04 0.04 0.03 0.02 0.01 0.02 0.02 0.02 0.02 0.02 0.01 0.01 0.01 0.01 0.01 0.01 0.01 0.01 0.02 0.01 0.01 0.01 0.01 0.01 0.01 0.01 0.01 0.01 0.02 0.02 0.02 0.03 0.04 0.04 0.03 0.03 0.02 0.02
MSLP
1001.26 1001.20 1001.35 1001.70 1002.24 1002.93 1003.72 1004.56 1005.41 1006.20 1006.92 1007.53 1008.05 1008.48 1008.84 1009.17 1009.48 1009.80 1010.13 1010.46 1010.79 1011.10 1011.37 1011.61 1011.81 1011.99 1012.16 1012.35 1012.58 1012.84 1013.13 1013.44 1013.75 1014.02 1014.24 1014.36 1014.40 1014.34 1014.18 1013.95 1013.66 1013.35 1013.03
1002.14 1001.84 1001.73 1001.83 1002.16 1002.69 1003.39 1004.21 1005.08 1005.94 1006.74 1007.44 1008.02 1008.49 1008.86 1009.17 1009.44 1009.70 1009.98 1010.26 1010.55 1010.83 1011.09 1011.31 1011.50 1011.66 1011.80 1011.96 1012.14 1012.36 1012.62 1012.90 1013.19 1013.46 1013.68 1013.83 1013.90 1013.87 1013.76 1013.58 1013.34 1013.08 1012.81
1003.16 1002.63 1002.27 1002.12 1002.21 1002.56 1003.12 1003.87 1004.73 1005.63 1006.49 1007.26 1007.90 1008.42 1008.80 1009.10 1009.34 1009.56 1009.78 1010.02 1010.28 1010.54 1010.79 1011.01 1011.20 1011.36 1011.49 1011.62 1011.77 1011.95 1012.16 1012.40 1012.65 1012.89 1013.10 1013.24 1013.31 1013.30 1013.21 1013.06 1012.87 1012.65 1012.43
1004.18 1003.48 1002.90 1002.52 1002.39 1002.54 1002.96 1003.62 1004.43 1005.33 1006.22 1007.03 1007.72 1008.27 1008.68 1008.97 1009.19 1009.38 1009.57 1009.78 1010.02 1010.28 1010.53 1010.77 1010.97 1011.14 1011.28 1011.40 1011.52 1011.66 1011.83 1012.02 1012.22 1012.41 1012.57 1012.68 1012.72 1012.70 1012.60 1012.46 1012.28 1012.08 1011.89
1005.08 1004.27 1003.55 1003.00 1002.70 1002.68 1002.95 1003.49 1004.24 1005.10 1005.98 1006.81 1007.53 1008.10 1008.53 1008.83 1009.04 1009.22 1009.39 1009.59 1009.82 1010.08 1010.34 1010.60 1010.83 1011.02 1011.18 1011.31 1011.42 1011.54 1011.66 1011.80 1011.94 1012.06 1012.16 1012.21 1012.20 1012.13 1012.01 1011.84 1011.64 1011.44 1011.26
1005.78 1004.94 1004.16 1003.53 1003.12 1002.98 1003.13 1003.56 1004.21 1005.00 1005.85 1006.67 1007.39 1007.97 1008.41 1008.72 1008.93 1009.10 1009.27 1009.46 1009.69 1009.96 1010.24 1010.52 1010.78 1011.00 1011.18 1011.32 1011.43 1011.53 1011.62 1011.70 1011.77 1011.83 1011.85 1011.83 1011.76 1011.63 1011.44 1011.23 1011.00 1010.78 1010.59
1006.27 1005.49 1004.74 1004.10 1003.65 1003.45 1003.51 1003.85 1004.40 1005.11 1005.89 1006.66 1007.35 1007.92 1008.36 1008.68 1008.90 1009.07 1009.24 1009.42 1009.65 1009.92 1010.21 1010.51 1010.79 1011.03 1011.22 1011.37 1011.48 1011.56 1011.61 1011.64 1011.66 1011.64 1011.60 1011.50 1011.36 1011.16 1010.92 1010.66 1010.40 1010.14 1009.92
1006.57 1005.92 1005.28 1004.72 1004.30 1004.09 1004.11 1004.36 1004.83 1005.44 1006.14 1006.83 1007.48 1008.01 1008.43 1008.74 1008.96 1009.14 1009.30 1009.48 1009.70 1009.96 1010.24 1010.54 1010.81 1011.06 1011.25 1011.39 1011.49 1011.54 1011.55 1011.54 1011.50 1011.42 1011.30 1011.14 1010.94 1010.70 1010.41 1010.11 1009.81 1009.52 1009.28
1006.77 1006.28 1005.80 1005.38 1005.05 1004.88 1004.89 1005.10 1005.48 1005.99 1006.58 1007.19 1007.76 1008.25 1008.64 1008.93 1009.14 1009.30 1009.46 1009.62 1009.82 1010.05 1010.32 1010.58 1010.83 1011.05 1011.22 1011.34 1011.39 1011.40 1011.37 1011.30 1011.20 1011.07 1010.90 1010.70 1010.46 1010.18 1009.87 1009.55 1009.23 1008.93 1008.66
1006.94 1006.64 1006.35 1006.09 1005.89 1005.79 1005.82 1005.99 1006.30 1006.71 1007.20 1007.70 1008.19 1008.62 1008.96 1009.23 1009.42 1009.57 1009.71 1009.85 1010.01 1010.20 1010.42 1010.63 1010.84 1011.00 1011.12 1011.18 1011.18 1011.14 1011.04 1010.91 1010.75 1010.56 1010.36 1010.12 1009.86 1009.57 1009.27 1008.96 1008.65 1008.35 1008.08
1007.16 1007.04 1006.94 1006.84 1006.78 1006.76 1006.83 1006.98 1007.22 1007.54 1007.93 1008.33 1008.73 1009.08 1009.38 1009.61 1009.78 1009.91 1010.02 1010.13 1010.25 1010.39 1010.54 1010.70 1010.83 1010.93 1010.98 1010.96 1010.89 1010.76 1010.60 1010.40 1010.17 1009.94 1009.69 1009.43 1009.17 1008.90 1008.62 1008.34 1008.06 1007.78 1007.52
1007.48 1007.52 1007.57 1007.63 1007.68 1007.74 1007.83 1007.97 1008.16 1008.40 1008.69 1009.00 1009.32 1009.60 1009.84 1010.03 1010.17 1010.27 1010.35 1010.42 1010.50 1010.60 1010.69 1010.78 1010.84 1010.86 1010.83 1010.74 1010.59 1010.38 1010.13 1009.85 1009.56 1009.27 1008.99 1008.72 1008.46 1008.20 1007.96 1007.72 1007.47 1007.23 1006.99
1007.91 1008.06 1008.24 1008.41 1008.55 1008.67 1008.78 1008.90 1009.04 1009.22 1009.42 1009.65 1009.88 1010.10 1010.29 1010.44 1010.54 1010.61 1010.66 1010.70 1010.74 1010.79 1010.83 1010.86 1010.87 1010.83 1010.73 1010.57 1010.34 1010.06 1009.74 1009.38 1009.03 1008.69 1008.37 1008.08 1007.82 1007.58 1007.36 1007.16 1006.95 1006.74 1006.52
1008.45 1008.67 1008.92 1009.15 1009.35 1009.50 1009.62 1009.72 1009.82 1009.93 1010.07 1010.22 1010.39 1010.54 1010.68 1010.78 1010.85 1010.89 1010.91 1010.92 1010.92 1010.94 1010.95 1010.95 1010.92 1010.84 1010.70 1010.50 1010.22 1009.88 1009.49 1009.08 1008.67 1008.28 1007.92 1007.61 1007.34 1007.11 1006.91 1006.72 1006.52 1006.32 1006.12
1009.04 1009.30 1009.58 1009.84 1010.05 1010.20 1010.31 1010.38 1010.45 1010.52 1010.60 1010.70 1010.80 1010.90 1010.98 1011.04 1011.06 1011.06 1011.05 1011.04 1011.02 1011.02 1011.02 1011.01 1010.97 1010.89 1010.74 1010.52 1010.22 1009.86 1009.44 1009.00 1008.55 1008.12 1007.73 1007.39 1007.10 1006.86 1006.64 1006.44 1006.24 1006.02 1005.80
1009.66 1009.91 1010.18 1010.43 1010.63 1010.77 1010.86 1010.90 1010.94 1010.96 1011.01 1011.06 1011.11 1011.16 1011.19 1011.20 1011.18 1011.14 1011.09 1011.05 1011.02 1011.02 1011.02 1011.02 1011.01 1010.95 1010.83 1010.63 1010.35 1009.99 1009.57 1009.12 1008.65 1008.20 1007.79 1007.42 1007.11 1006.83 1006.58 1006.35 1006.10 1005.84 1005.57
1010.25 1010.48 1010.72 1010.93 1011.10 1011.21 1011.26 1011.29 1011.30 1011.30 1011.31 1011.33 1011.34 1011.34 1011.32 1011.28 1011.21 1011.13 1011.06 1010.99 1010.95 1010.95 1010.97 1011.01 1011.03 1011.02 1010.94 1010.79 1010.55 1010.23 1009.83 1009.39 1008.93 1008.48 1008.06 1007.67 1007.32 1007.01 1006.71 1006.41 1006.10 1005.76 1005.41
1010.79 1010.98 1011.17 1011.34 1011.46 1011.53 1011.56 1011.57 1011.56 1011.55 1011.54 1011.53 1011.51 1011.48 1011.42 1011.33 1011.22 1011.10 1010.99 1010.91 1010.87 1010.87 1010.92 1010.98 1011.06 1011.10 1011.08 1010.98 1010.80 1010.52 1010.16 1009.76 1009.32 1008.88 1008.45 1008.05 1007.68 1007.31 1006.96 1006.59 1006.19 1005.76 1005.30
1011.26 1011.40 1011.54 1011.66 1011.74 1011.78 1011.79 1011.78 1011.76 1011.74 1011.72 1011.70 1011.67 1011.61 1011.52 1011.40 1011.26 1011.11 1010.98 1010.89 1010.84 1010.86 1010.93 1011.03 1011.14 1011.22 1011.25 1011.20 1011.06 1010.83 1010.51 1010.13 1009.72 1009.29 1008.87 1008.46 1008.06 1007.66 1007.25 1006.80 1006.32 1005.78 1005.22
1011.63 1011.74 1011.84 1011.91 1011.96 1011.97 1011.96 1011.95 1011.93 1011.91 1011.90 1011.88 1011.83 1011.76 1011.66 1011.53 1011.38 1011.22 1011.09 1011.00 1010.96 1010.99 1011.08 1011.20 1011.33 1011.44 1011.50 1011.47 1011.35 1011.14 1010.84 1010.47 1010.07 1009.65 1009.23 1008.82 1008.40 1007.97 1007.52 1007.01 1006.44 1005.82 1005.15
1011.94 1012.01 1012.08 1012.12 1012.14 1012.14 1012.12 1012.10 1012.08 1012.08 1012.07 1012.05 1012.02 1011.96 1011.86 1011.74 1011.60 1011.46 1011.34 1011.27 1011.26 1011.31 1011.41 1011.55 1011.69 1011.80 1011.85 1011.82 1011.68 1011.46 1011.14 1010.76 1010.35 1009.92 1009.50 1009.07 1008.64 1008.20 1007.71 1007.16 1006.55 1005.86 1005.12
1012.18 1012.24 1012.29 1012.31 1012.31 1012.30 1012.27 1012.24 1012.23 1012.23 1012.23 1012.23 1012.22 1012.18 1012.11 1012.02 1011.92 1011.82 1011.75 1011.72 1011.74 1011.82 1011.94 1012.09 1012.22 1012.31 1012.33 1012.25 1012.07 1011.80 1011.43 1011.01 1010.56 1010.10 1009.66 1009.22 1008.78 1008.32 1007.82 1007.26 1006.63 1005.92 1005.14
1012.36 1012.43 1012.48 1012.49 1012.48 1012.45 1012.41 1012.38 1012.37 1012.37 1012.38 1012.39 1012.40 1012.39 1012.36 1012.32 1012.28 1012.24 1012.24 1012.27 1012.35 1012.47 1012.62 1012.77 1012.89 1012.94 1012.91 1012.77 1012.52 1012.16 1011.73 1011.24 1010.72 1010.22 1009.73 1009.27 1008.82 1008.36 1007.88 1007.34 1006.72 1006.02 1005.25
1012.53 1012.61 1012.65 1012.66 1012.64 1012.60 1012.55 1012.50 1012.48 1012.48 1012.49 1012.51 1012.54 1012.56 1012.58 1012.60 1012.63 1012.67 1012.74 1012.85 1013.00 1013.17 1013.35 1013.51 1013.61 1013.63 1013.54 1013.34 1013.00 1012.56 1012.04 1011.46 1010.88 1010.30 1009.77 1009.28 1008.82 1008.37 1007.91 1007.41 1006.84 1006.20 1005.48
1012.68 1012.77 1012.82 1012.83 1012.80 1012.74 1012.67 1012.61 1012.57 1012.54 1012.55 1012.57 1012.62 1012.67 1012.73 1012.80 1012.90 1013.01 1013.16 1013.35 1013.56 1013.79 1014.00 1014.18 1014.28 1014.28 1014.14 1013.87 1013.47 1012.95 1012.34 1011.69 1011.03 1010.40 1009.82 1009.30 1008.83 1008.40 1007.98 1007.53 1007.03 1006.47 1005.84
1012.81 1012.92 1012.98 1012.98 1012.94 1012.86 1012.77 1012.68 1012.61 1012.57 1012.56 1012.57 1012.62 1012.69 1012.78 1012.90 1013.04 1013.22 1013.44 1013.69 1013.96 1014.23 1014.48 1014.68 1014.78 1014.77 1014.62 1014.31 1013.87 1013.30 1012.64 1011.94 1011.22 1010.55 1009.94 1009.39 1008.92 1008.51 1008.12 1007.74 1007.32 1006.84 1006.31
Thickness
5733 5732 5731 5730 5730 5727 5725 5724 5721 5719 5716 5714 5711 5708 5705 5703 5701 5698 5695 5692 5690 5689 5687 5687 5684 5683 5682 5680 5679 5678 5677 5677 5677 5676 5677 5678 5679 5677 5675 5675 5675 5675 5674
5725 5725 5725 5725 5724 5723 5720 5719 5718 5716 5712 5710 5708 5705 5703 5700 5697 5695 5691 5688 5686 5684 5684 5681 5680 5679 5676 5675 5674 5672 5672 5673 5672 5670 5668 5669 5671 5670 5672 5669 5668 5668 5669
5719 5719 5720 5720 5720 5718 5716 5716 5714 5712 5709 5707 5704 5700 5697 5695 5692 5689 5686 5684 5681 5679 5678 5677 5676 5674 5673 5672 5669 5667 5665 5666 5667 5665 5661 5659 5661 5663 5665 5663 5662 5660 5660
5717 5717 5717 5716 5715 5714 5713 5712 5709 5707 5705 5703 5700 5696 5693 5690 5688 5685 5682 5679 5677 5675 5673 5672 5671 5669 5669 5667 5666 5665 5661 5659 5659 5659 5657 5655 5654 5649 5653 5656 5657 5655 5654
5714 5713 5714 5713 5713 5712 5710 5707 5704 5702 5700 5698 5695 5692 5689 5687 5684 5681 5677 5674 5673 5671 5669 5667 5666 5664 5664 5662 5660 5658 5655 5654 5653 5652 5651 5649 5647 5645 5642 5645 5648 5649 5650
5711 5711 5711 5710 5709 5708 5706 5703 5699 5697 5695 5692 5690 5687 5684 5681 5678 5675 5673 5671 5669 5667 5665 5663 5661 5660 5659 5657 5654 5652 5650 5648 5647 5645 5644 5642 5640 5639 5638 5637 5639 5640 5643
5707 5706 5706 5705 5704 5703 5701 5699 5696 5693 5691 5688 5685 5683 5680 5677 5674 5671 5669 5667 5665 5663 5660 5659 5656 5655 5652 5650 5649 5646 5645 5643 5640 5638 5637 5636 5634 5634 5631 5630 5631 5632 5636
5704 5703 5702 5700 5699 5698 5696 5694 5692 5689 5687 5684 5681 5679 5676 5675 5672 5668 5666 5664 5662 5659 5656 5654 5652 5649 5646 5645 5643 5642 5640 5638 5635 5634 5630 5628 5628 5627 5625 5623 5621 5621 5625
5698 5698 5697 5696 5695 5693 5691 5690 5688 5685 5683 5680 5677 5675 5672 5670 5667 5664 5662 5660 5657 5655 5652 5649 5646 5643 5641 5639 5637 5637 5634 5632 5630 5629 5626 5623 5623 5622 5620 5617 5614 5612 5612
5693 5693 5692 5692 5691 5689 5688 5686 5684 5681 5679 5676 5674 5672 5669 5666 5663 5661 5657 5655 5652 5649 5647 5645 5642 5639 5637 5635 5633 5632 5630 5627 5625 5622 5619 5617 5617 5616 5613 5611 5610 5608 5605
5687 5688 5689 5689 5688 5686 5685 5682 5680 5677 5675 5674 5671 5669 5666 5663 5661 5657 5654 5651 5648 5645 5643 5641 5638 5635 5633 5631 5628 5627 5625 5622 5620 5617 5615 5612 5610 5609 5608 5607 5605 5603 5601
5684 5685 5684 5684 5683 5681 5680 5677 5676 5674 5672 5671 5668 5665 5663 5660 5656 5654 5651 5648 5645 5642 5639 5636 5634 5631 5629 5626 5624 5622 5620 5617 5614 5612 5609 5607 5605 5602 5601 5599 5598 5596 5595
5679 5680 5679 5678 5677 5677 5675 5673 5672 5670 5669 5667 5665 5662 5659 5655 5652 5650 5647 5644 5641 5637 5635 5632 5629 5626 5624 5622 5620 5618 5615 5612 5609 5607 5604 5601 5598 5596 5595 5592 5591 5590 5591
5675 5675 5674 5673 5673 5672 5671 5669 5668 5667 5665 5663 5661 5658 5655 5652 5649 5647 5644 5641 5637 5634 5631 5628 5626 5623 5620 5618 5616 5613 5610 5607 5605 5602 5599 5596 5593 5589 5587 5586 5584 5583 5582
5671 5671 5671 5670 5669 5668 5667 5666 5665 5663 5661 5660 5657 5655 5652 5650 5647 5644 5641 5637 5634 5631 5628 5625 5622 5620 5617 5613 5609 5607 5605 5602 5600 5597 5594 5591 5586 5581 5578 5577 5576 5575 5574
5667 5668 5668 5667 5666 5665 5664 5663 5662 5660 5658 5656 5654 5653 5650 5648 5644 5641 5638 5635 5631 5628 5625 5622 5619 5616 5613 5605 5601 5598 5598 5597 5594 5591 5588 5585 5581 5576 5570 5567 5565 5563 5564
5664 5664 5664 5663 5663 5662 5661 5660 5659 5658 5656 5654 5652 5651 5648 5645 5642 5639 5636 5632 5628 5625 5621 5619 5615 5612 5606 5600 5596 5592 5592 5591 5588 5585 5581 5579 5576 5570 5566 5563 5560 5558 5554
5661 5661 5661 5661 5661 5661 5659 5658 5658 5656 5653 5651 5650 5648 5646 5643 5639 5635 5631 5628 5625 5621 5618 5615 5612 5608 5602 5595 5591 5588 5588 5587 5583 5579 5575 5570 5566 5562 5556 5556 5555 5553 5551
5659 5659 5659 5659 5658 5657 5657 5655 5654 5653 5651 5649 5647 5646 5644 5640 5636 5632 5628 5625 5622 5619 5616 5613 5609 5604 5599 5591 5586 5581 5585 5582 5579 5574 5569 5563 5559 5550 5546 5547 5548 5547 5545
5659 5658 5658 5658 5656 5655 5654 5652 5651 5650 5649 5647 5645 5643 5641 5637 5633 5629 5626 5623 5619 5616 5614 5610 5606 5601 5595 5586 5581 5576 5580 5577 5574 5570 5564 5555 5549 5542 5538 5540 5540 5539 5538
5657 5657 5657 5655 5654 5653 5652 5650 5649 5648 5647 5645 5643 5640 5637 5634 5630 5626 5623 5620 5617 5614 5610 5607 5603 5598 5591 5584 5577 5572 5573 5571 5568 5564 5560 5553 5542 5537 5534 5531 5533 5529 5527
5655 5655 5653 5653 5653 5652 5650 5649 5647 5646 5645 5642 5640 5637 5634 5632 5629 5624 5621 5618 5615 5612 5608 5604 5600 5596 5589 5581 5574 5568 5563 5560 5560 5557 5553 5548 5538 5534 5530 5529 5525 5522 5522
5651 5651 5651 5650 5650 5650 5649 5646 5645 5644 5642 5639 5637 5634 5631 5628 5625 5622 5619 5616 5613 5611 5607 5603 5598 5594 5588 5580 5571 5565 5560 5555 5553 5551 5544 5539 5534 5532 5531 5525 5522 5520 5521
5649 5649 5648 5647 5647 5647 5647 5645 5644 5642 5639 5637 5634 5631 5628 5626 5622 5619 5617 5614 5611 5607 5603 5599 5595 5590 5584 5576 5570 5565 5561 5554 5551 5548 5543 5537 5533 5530 5526 5524 5522 5519 5516
5646 5646 5646 5645 5645 5645 5644 5644 5642 5640 5637 5635 5632 5630 5627 5624 5619 5615 5611 5609 5604 5599 5596 5593 5589 5583 5578 5566 5556 5554 5554 5550 5546 5542 5542 5539 5535 5531 5527 5523 5520 5515 5512
5645 5644 5644 5644 5644 5644 5643 5642 5641 5639 5636 5633 5631 5629 5626 5623 5620 5616 5611 5602 5598 5592 5588 5582 5578 5574 5565 5559 5554 5549 5545 5542 5538 5538 5538 5534 5530 5526 5522 5519 5515 5511 5507